Danville, IN

7:47 PM EDT on May 27, 2017 (GMT -0400)
Vermilion County

Weather History for KDNV - October, 2012

Change the Weather History Date:

Monday, October 1, 2012

  Actual Average (KLAF) Record (KLAF)
Temperature  
Mean Temperature 55 °F -  
Max Temperature 62 °F 72 °F 89 °F (1971)
Min Temperature 48 °F 48 °F 30 °F (1984)
Degree Days  
Heating Degree Days 10    
Growing Degree Days 5 (Base 50)    
Moisture  
Dew Point 44 °F    
Average Humidity 66    
Maximum Humidity 85    
Minimum Humidity 52    
Precipitation  
Precipitation 0.00 in - - ()
Sea Level Pressure  
Sea Level Pressure 29.81 in    
Wind  
Wind Speed 7 mph (NE)    
Max Wind Speed 13 mph    
Max Gust Speed 16 mph    
Visibility 9 miles    
Events      
Averages and records for this station are not official NWS values.
T = Trace of Precipitation, MM = Missing Value Source: NWS Daily Summary

Daily Weather History Graph

Daily Weather History Graph

Search for Another Location

Airport or City:

Trip Planner

Search our weather history database for the weather conditions in past years. The results will help you decide how hot, cold, wet, or windy it might be!

Date:

Astronomy

Oct. 01, 2012 Rise Set
Actual Time 6:47 AM CDT 6:31 PM CDT
Civil Twilight 6:20 AM CDT 6:58 PM CDT
Nautical Twilight 5:48 AM CDT 7:30 PM CDT
Astronomical Twilight 5:16 AM CDT 8:02 PM CDT
Moon 7:08 PM CDT (10/1) 8:16 AM CDT (10/1)
Length of Visible Light 12h 38m
Length of Day
11h 44m
Full, 98% of the Moon is Illuminated
Oct 1
Full
Oct 8
Last Quarter
Oct 15
New
Oct 21
First Quarter
Oct 29
Full

Hourly Weather History & Observations

Time (CDT) Temp. Dew Point Humidity Pressure Visibility Wind Dir Wind Speed Gust Speed Precip Events Conditions
12:15 AM 51.6 °F 41.7 °F 69% 29.88 in 10.0 mi NE 5.8 mph - N/A   Clear
12:35 AM 50.7 °F 41.9 °F 72% 29.89 in 10.0 mi ENE 4.6 mph - N/A   Clear
12:55 AM 50.9 °F 41.9 °F 71% 29.88 in 10.0 mi NE 5.8 mph - N/A   Clear
1:15 AM 50.9 °F 42.1 °F 72% 29.87 in 10.0 mi NE 5.8 mph - N/A   Clear
1:35 AM 50.4 °F 42.1 °F 73% 29.87 in 10.0 mi NE 5.8 mph - N/A   Clear
1:55 AM 50.0 °F 42.3 °F 75% 29.87 in 10.0 mi NE 5.8 mph - N/A   Clear
2:15 AM 49.5 °F 42.3 °F 76% 29.87 in 10.0 mi NE 4.6 mph - N/A   Clear
2:35 AM 48.6 °F 42.3 °F 79% 29.87 in 10.0 mi ENE 4.6 mph - N/A   Clear
2:55 AM 49.1 °F 42.4 °F 78% 29.86 in 10.0 mi ENE 5.8 mph - N/A   Clear
3:15 AM 49.3 °F 42.8 °F 78% 29.85 in 10.0 mi NE 5.8 mph - N/A   Clear
3:35 AM 49.1 °F 42.6 °F 78% 29.85 in 10.0 mi NE 5.8 mph - N/A   Clear
3:55 AM 49.1 °F 42.8 °F 79% 29.85 in 10.0 mi NE 5.8 mph - N/A   Clear
4:15 AM 48.4 °F 42.8 °F 81% 29.85 in 10.0 mi NE 5.8 mph - N/A   Clear
4:35 AM 48.0 °F 42.8 °F 82% 29.85 in 10.0 mi NE 4.6 mph - N/A   Clear
4:55 AM 48.2 °F 42.8 °F 82% 29.85 in 7.0 mi NE 4.6 mph - N/A   Clear
5:15 AM 48.2 °F 43.0 °F 82% 29.85 in 10.0 mi NE 5.8 mph - N/A   Clear
5:35 AM 48.4 °F 42.8 °F 81% 29.85 in 7.0 mi NE 4.6 mph - N/A   Clear
5:55 AM 48.6 °F 42.8 °F 80% 29.85 in 7.0 mi NE 4.6 mph - N/A   Clear
6:15 AM 48.4 °F 42.8 °F 81% 29.85 in 7.0 mi NE 4.6 mph - N/A   Clear
6:35 AM 48.9 °F 42.8 °F 79% 29.86 in 10.0 mi NE 4.6 mph - N/A   Clear
6:55 AM 49.1 °F 42.8 °F 79% 29.86 in 10.0 mi NE 5.8 mph - N/A   Clear
7:15 AM 49.1 °F 42.8 °F 79% 29.86 in 7.0 mi NE 5.8 mph - N/A   Clear
7:35 AM 48.0 °F 43.7 °F 85% 29.86 in 4.0 mi NNE 5.8 mph - N/A   Clear
7:55 AM 49.6 °F 43.9 °F 81% 29.86 in 5.0 mi NE 6.9 mph - N/A   Haze
8:15 AM 50.9 °F 44.4 °F 78% 29.86 in 7.0 mi NE 8.1 mph - N/A   Clear
8:35 AM 51.8 °F 44.4 °F 76% 29.85 in 7.0 mi NE 9.2 mph - N/A   Clear
8:55 AM 53.4 °F 44.8 °F 73% 29.85 in 10.0 mi NE 6.9 mph - N/A   Clear
9:15 AM 54.9 °F 43.7 °F 66% 29.85 in 10.0 mi NE 9.2 mph - N/A   Clear
9:35 AM 55.9 °F 43.2 °F 62% 29.84 in 10.0 mi ENE 8.1 mph - N/A   Clear
9:55 AM 56.8 °F 42.3 °F 58% 29.84 in 10.0 mi NE 9.2 mph - N/A   Clear
10:15 AM 57.7 °F 42.3 °F 56% 29.84 in 7.0 mi ENE 9.2 mph - N/A   Clear
10:35 AM 58.3 °F 41.9 °F 54% 29.84 in 10.0 mi NE 9.2 mph - N/A   Clear
10:55 AM 59.2 °F 41.9 °F 53% 29.83 in 10.0 mi ENE 10.4 mph - N/A   Clear
11:15 AM 59.9 °F 43.2 °F 54% 29.83 in 10.0 mi NE 9.2 mph - N/A   Clear
11:35 AM 60.8 °F 43.7 °F 53% 29.82 in 10.0 mi NE 10.4 mph - N/A   Clear
11:55 AM 61.7 °F 43.7 °F 52% 29.82 in 10.0 mi ENE 9.2 mph - N/A   Clear
12:15 PM 61.3 °F 44.2 °F 53% 29.82 in 7.0 mi ENE 6.9 mph - N/A   Clear
12:35 PM 61.2 °F 45.1 °F 56% 29.82 in 10.0 mi ENE 8.1 mph - N/A   Clear
12:55 PM 61.0 °F 45.9 °F 58% 29.81 in 10.0 mi ENE 9.2 mph - N/A   Clear
1:15 PM 61.5 °F 46.4 °F 58% 29.80 in 7.0 mi NE 9.2 mph - N/A   Clear
1:35 PM 61.9 °F 46.6 °F 57% 29.79 in 7.0 mi NE 9.2 mph - N/A   Clear
1:55 PM 62.6 °F 46.4 °F 55% 29.79 in 10.0 mi ENE 11.5 mph - N/A   Clear
2:15 PM 62.1 °F 46.6 °F 57% 29.79 in 10.0 mi ENE 10.4 mph - N/A   Clear
2:35 PM 61.9 °F 46.8 °F 58% 29.78 in 10.0 mi NE 10.4 mph - N/A   Clear
2:55 PM 61.3 °F 46.6 °F 58% 29.79 in 10.0 mi ENE 6.9 mph - N/A   Clear
3:15 PM 61.2 °F 46.6 °F 59% 29.77 in 10.0 mi NE 8.1 mph - N/A   Clear
3:35 PM 61.3 °F 46.4 °F 58% 29.77 in 10.0 mi NE 11.5 mph - N/A   Clear
3:55 PM 61.0 °F 46.2 °F 58% 29.76 in 10.0 mi NNE 8.1 mph - N/A   Clear
4:15 PM 61.5 °F 46.4 °F 58% 29.76 in 10.0 mi NNE 8.1 mph - N/A   Clear
4:35 PM 61.3 °F 46.2 °F 58% 29.75 in 10.0 mi NNE 12.7 mph 16.1 mph N/A   Clear
4:55 PM 61.2 °F 45.9 °F 57% 29.75 in 7.0 mi NNE 12.7 mph - N/A   Clear
5:15 PM 60.8 °F 45.7 °F 57% 29.75 in 10.0 mi NNE 9.2 mph - N/A   Clear
5:35 PM 60.4 °F 45.5 °F 58% 29.75 in 10.0 mi NNE 8.1 mph - N/A   Clear
5:55 PM 59.9 °F 45.7 °F 59% 29.75 in 10.0 mi NE 8.1 mph - N/A   Clear
6:15 PM 59.9 °F 45.5 °F 59% 29.75 in 10.0 mi NE 8.1 mph - N/A   Clear
6:35 PM 59.5 °F 45.5 °F 60% 29.76 in 10.0 mi ENE 9.2 mph - N/A   Scattered Clouds
6:55 PM 59.0 °F 45.5 °F 61% 29.76 in 10.0 mi NE 8.1 mph - N/A   Scattered Clouds
7:15 PM 58.3 °F 45.7 °F 63% 29.75 in 10.0 mi NNE 9.2 mph - N/A   Scattered Clouds
7:35 PM 59.0 °F 44.6 °F 59% 29.76 in 10.0 mi NNE 9.2 mph - N/A   Mostly Cloudy
7:55 PM 57.0 °F 45.9 °F 66% 29.76 in 10.0 mi North 8.1 mph - N/A   Overcast
8:15 PM 56.8 °F 45.1 °F 65% 29.76 in 10.0 mi North 6.9 mph - N/A   Overcast
8:35 PM 56.3 °F 45.3 °F 67% 29.76 in 10.0 mi North 6.9 mph - N/A   Overcast
8:55 PM 56.1 °F 45.0 °F 66% 29.77 in 10.0 mi NNE 4.6 mph - N/A   Overcast
9:15 PM 56.8 °F 44.6 °F 64% 29.76 in 10.0 mi NNE 6.9 mph - N/A   Overcast
9:35 PM 58.1 °F 43.9 °F 59% 29.76 in 10.0 mi NNE 10.4 mph - N/A   Overcast
9:55 PM 58.3 °F 44.2 °F 60% 29.76 in 10.0 mi North 9.2 mph - N/A   Overcast
10:15 PM 58.1 °F 44.2 °F 60% 29.76 in 10.0 mi North 9.2 mph - N/A   Overcast
10:35 PM 57.7 °F 44.6 °F 62% 29.76 in 10.0 mi North 9.2 mph - N/A   Overcast
10:55 PM 57.2 °F 45.0 °F 64% 29.75 in 10.0 mi North 8.1 mph - N/A   Overcast
11:15 PM 56.7 °F 45.1 °F 65% 29.75 in 10.0 mi North 9.2 mph - N/A   Overcast
11:35 PM 56.3 °F 45.5 °F 67% 29.75 in 10.0 mi North 8.1 mph - N/A   Overcast
11:55 PM 56.3 °F 45.7 °F 68% 29.74 in 10.0 mi North 10.4 mph - N/A   Overcast